SCP
0 0 0 0 0 0 0 0 0 0 0 -0 0 0 0 -0 -0 0 0 -0 -0 0 0 0 0 0 0 0 0 0 0 0 0 0 0 0 0 0 0 0 0 0 -0
0 0 0 0 0 0 0 0 0 -0 0 0 0 0 0 0 -0 0 0 -0 -0 -0 0 0 0 0 0 0 0 0 0 0 0 0 0 0 0 0 0 0 0 0 0
0 0 0 0 0 0 0 0 0 0 -0 0 0 0 -0 0 -0 0 0 -0 0 0 -0 0 0 0 0 0 0 0 0 0 0 0 0 0 0 0 0 0 0 0 0
0 0 0 0 0 0 0 0 0 0 -0 0 0 0 0 0 -0 -0 0 0 0 -0 0 0 0 0 0 0 0 0 0 0 0 0 0 0 0 0 0 0 0 0 0
0 0 0 0 0 0 0 0 0 0 -0 -0 0 0 -0 0 -0 0 -0 0 0 -0 0 0 0 0 0 0 0 0 0 0 0 0 0 0 0 0 0 0 0 0 0
0 0 0 0 0 0 0 0 0 0 -0 -0 -0 0 -0 -0 -0 0 -0 -0 -0 -0 0 0 0 0 0 0 0 0 0 0 0 0 0 0 0 0 0 0 0 0 0
0 0 0 0 0 0 0 0 0 0 0 0 0 0 -0 -0 -0 -0 0 -0 -0 -0 -0 0 0 0 0 0 0 -0 0 -0 0 0 0 0 0 0 0 0 0 0 0
0 0 0 0 0 0 0 0 0 0 0 0 0 0 -0 -0 0 -0 0 0 -0 -0 -0 -0 0 0 0 0 0 0 0 0 0 0 0 0 0 0 0 0 0 0 0
0 0 0 0 0 0 0 0 0 0 0 0 0 0 0 0 -0 -0 -0 -0 -0 -0 -0 -0 0 0 0 -0 -0 -0 -0 0 -0 -0 -0 0 0 0 0 -0 0 0 0
0 0 0 0 0 0 0 0 0 0 0 0 0 0 0 0 0 0 0 0 0 0 0 0 0 0 -0 -0 -0 -0 -0 0 0 0 0 0 0 0 0 0 0 0 0
0 0 0 0 0 0 0 0 0 0 0 0 0 0 0 0 0 0 0 0 0 0 0 0 0 -0 -0 -0 -0 0 0 -0 0 0 0 0 0 0 0 0 0 0 0
0 0 0 0 0 0 0 0 0 0 0 0 0 0 0 0 0 0 0 0 0 0 0 0 0 0 -0 -0 0 -0 -0 0 0 0 0 0 0 0 0 0 0 0 0
0 0 0 0 0 0 0 0 0 0 0 0 0 0 0 0 0 0 0 0 0 0 0 0 0 0 -0 0 -0 -0 0 0 0 0 0 0 0 0 0 0 0 0 0
0 0 0 0 0 0 0 0 0 0 0 0 0 0 0 0 0 0 0 0 0 0 0 0 0 0 0 0 0 0 0 0 0 0 0 0 0 0 0 0 0 0 0
0 0 0 0 0 0 0 0 0 0 0 0 0 0 0 0 0 0 0 0 0 0 0 0 0 0 0 0 0 0 0 0 0 0 0 0 0 0 0 0 0 0 0
0 0 0 0 0 0 0 0 0 0 0 0 0 0 0 0 0 0 0 0 0 0 0 0 0 0 0 0 0 0 0 0 0 0 0 0 0 0 0 0 0 0 0
0 0 0 0 0 0 0 0 0 0 0 0 0 0 0 0 0 0 0 0 0 0 0 0 0 0 0 0 0 0 0 0 0 0 0 0 0 0 0 0 0 0 0
0 0 0 0 0 0 0 0 0 0 0 0 0 0 0 0 0 0 0 0 0 0 0 0 0 0 0 0 0 0 0 0 0 0 0 0 0 0 0 0 0 0 0
0 0 0 0 0 0 0 0 0 0 0 0 0 0 0 0 0 0 0 0 0 0 0 0 0 0 0 0 0 0 0 0 0 0 0 0 0 0 0 0 0 0 0
0 0 0 0 0 0 0 0 0 0 0 0 0 0 0 0 0 0 0 0 0 0 0 0 0 0 0 0 0 0 0 0 0 0 0 0 0 0 0 0 0 0 0
0 0 0 0 0 0 0 0 0 0 0 0 0 0 0 0 0 0 0 0 0 0 0 0 0 0 0 0 0 0 0 0 0 0 0 0 0 0 0 0 0 0 0
0 0 0 0 0 0 0 0 0 0 0 0 0 0 -0 0 0 0 0 0 0 0 0 0 0 0 0 0 0 0 0 0 0 0 0 0 0 0 0 0 0 0 0
0 0 0 0 0 0 0 0 0 0 0 0 0 0 0 0 0 0 0 0 0 0 0 0 0 0 0 0 0 0 0 0 0 0 0 0 0 0 0 0 0 0 0
0 0 0 0 0 0 0 0 0 0 0 0 0 0 0 0 0 0 0 0 0 0 0 0 0 0 0 0 0 0 0 0 0 0 0 0 0 0 0 0 0 0 0
0 0 0 0 0 0 0 0 0 0 0 0 0 0 0 0 0 0 0 0 0 0 0 0 0 0 0 0 0 0 0 0 0 0 0 0 0 0 0 0 0 0 0
0 0 0 0 0 0 0 0 0 0 0 0 0 0 0 0 0 0 0 0 0 0 0 0 0 0 0 0 0 0 0 0 0 0 0 0 0 0 0 0 0 0 0
Wind_Speed_500mb
16 13 11 13 13 10 7 5 4 5 4 9 2 2 9 9 9 10 18 18 16 21 22 27 38 42 47 48 35 31 18 28 48 42 39 37 32 25 26 23 19 15 10
20 15 12 15 17 15 11 9 7 6 6 9 3 4 9 12 13 16 18 20 26 23 26 35 56 49 45 40 37 29 21 27 28 47 39 38 32 27 25 23 19 13 6
23 17 14 15 19 17 14 10 10 10 11 11 6 7 9 11 15 19 22 29 23 24 32 50 26 31 39 29 32 33 27 27 28 36 38 41 36 31 31 25 20 14 10
27 21 15 15 20 19 16 11 10 11 13 13 9 8 14 15 13 21 24 26 22 22 35 35 30 25 31 34 32 32 30 26 29 37 39 46 42 38 29 28 25 19 13
31 25 17 16 21 23 19 14 11 14 17 16 15 12 13 15 14 18 30 29 20 25 31 33 29 36 36 30 27 29 19 14 16 26 42 45 43 40 38 33 28 23 17
33 28 20 18 20 24 21 17 12 14 18 21 21 21 16 21 22 21 30 32 32 44 43 42 39 34 32 33 33 22 15 16 19 27 36 42 39 37 35 32 27 25 19
36 31 23 18 20 23 23 18 14 16 17 21 28 26 18 25 24 28 28 42 42 50 41 36 40 33 37 40 29 21 17 18 15 15 24 32 36 35 32 32 27 22 18
36 33 26 21 21 23 23 16 15 17 18 27 32 25 23 27 29 28 33 47 43 43 34 34 28 31 33 31 26 24 23 28 26 24 22 24 25 32 29 25 31 28 24
34 32 28 21 24 25 19 17 19 20 24 29 25 25 26 24 34 30 32 36 42 41 36 31 27 24 26 23 21 24 27 29 30 26 24 26 28 27 25 29 33 31 29
32 29 28 22 25 27 22 20 24 25 29 26 25 24 32 30 37 33 36 35 36 38 36 34 27 27 22 21 20 24 25 27 27 26 27 27 29 31 30 27 20 24 20
26 31 31 25 24 30 27 25 30 31 32 31 26 26 29 36 37 38 38 37 34 34 39 38 33 27 27 27 27 30 22 25 27 24 25 26 28 29 29 29 29 28 21
22 29 31 28 26 33 32 31 38 39 34 32 30 32 32 36 41 39 43 45 41 37 31 33 35 31 32 32 35 32 29 28 25 26 27 28 29 29 27 26 25 23 21
18 27 29 32 31 33 36 36 42 43 43 38 35 33 37 38 42 44 43 41 40 41 40 38 39 42 41 42 40 36 32 30 28 28 27 27 27 25 26 27 27 25 23
19 21 29 30 32 34 41 41 42 47 48 47 43 38 40 40 44 50 50 50 49 49 48 47 43 43 46 49 46 42 35 32 27 26 28 28 30 30 29 28 29 30 31
31 18 23 30 31 34 40 43 44 41 47 47 46 41 42 42 47 47 48 57 55 48 49 48 54 54 52 50 47 42 39 36 35 32 31 31 31 32 35 35 32 35 37
30 24 20 30 31 32 37 43 46 47 48 47 45 43 45 47 45 47 50 51 49 52 54 55 61 61 55 54 50 44 41 39 37 36 35 32 33 37 38 38 38 40 40
32 29 24 25 32 36 37 40 46 47 51 50 50 46 49 47 48 49 49 46 52 53 54 59 62 57 53 51 47 42 40 41 39 40 38 37 40 43 43 42 47 46 45
33 32 31 27 27 36 41 45 43 50 53 47 56 55 51 50 47 47 46 47 50 52 59 59 60 56 49 49 47 46 46 46 46 45 43 45 46 47 46 48 52 51 48
38 35 32 32 30 30 39 45 48 50 60 59 49 50 55 51 48 53 51 52 51 58 58 58 59 55 50 48 46 46 46 46 47 47 46 49 50 50 48 51 53 51 48
41 40 38 35 32 32 33 42 51 57 61 72 66 50 49 57 64 68 70 66 62 59 64 68 62 56 50 47 48 49 50 52 50 48 50 53 54 52 50 55 57 55 51
52 44 44 45 40 35 35 39 45 55 60 65 76 64 48 55 66 78 78 77 71 70 69 71 62 56 51 49 50 52 53 51 51 50 53 55 56 55 55 57 58 57 53
52 53 48 50 49 44 40 40 44 51 56 63 69 78 57 54 65 75 82 80 78 77 73 69 65 57 50 49 53 55 52 51 50 52 54 56 57 57 60 63 63 60 55
51 53 55 53 54 54 50 46 47 50 55 58 65 74 74 66 61 66 80 83 80 80 79 78 73 66 58 58 57 52 48 47 47 51 54 58 59 60 61 65 65 63 58
55 56 58 62 61 59 58 58 55 53 54 58 60 67 74 75 78 65 67 82 86 83 84 82 79 72 66 65 62 56 48 45 46 48 51 54 56 56 59 64 65 62 57
56 60 62 63 64 67 66 65 64 62 57 56 62 64 70 70 69 71 68 74 88 93 86 83 80 74 69 67 66 60 51 46 50 50 50 51 51 51 57 65 67 65 59
50 53 59 65 68 67 68 70 71 71 68 61 58 62 66 70 68 66 69 69 81 91 90 84 76 78 75 72 71 65 56 51 52 50 52 52 55 54 58 65 69 67 62
Wind_Direction_500mb
261 265 256 233 220 216 202 226 215 177 221 258 250 53 96 59 83 136 112 142 133 156 164 165 174 179 171 166 174 174 171 181 180 166 172 167 166 171 176 181 184 192 190
259 259 256 235 225 216 213 239 245 241 197 254 240 154 111 90 98 144 128 126 136 133 160 169 154 150 161 161 171 178 170 188 187 171 174 172 173 172 179 178 172 170 181
257 257 257 239 230 218 221 232 255 253 217 239 222 173 138 120 125 143 137 130 133 138 156 155 176 173 167 172 169 158 163 176 167 176 178 179 176 178 181 175 174 165 181
258 256 257 243 230 227 228 232 254 241 226 204 210 183 165 142 151 162 157 155 151 155 164 172 163 167 170 161 154 161 154 163 174 196 193 184 183 178 185 182 170 173 175
251 252 253 245 227 230 235 239 242 242 221 208 195 185 165 165 162 161 169 167 159 154 158 169 156 144 145 155 168 175 184 200 199 200 191 185 183 184 183 181 178 166 155
244 248 241 241 230 231 232 246 239 228 218 206 179 176 166 161 154 159 157 161 151 142 143 144 149 155 162 166 175 190 212 202 210 186 186 187 185 184 183 186 187 176 171
241 243 240 234 227 232 233 233 233 219 212 189 168 170 164 163 159 157 155 154 153 154 155 161 158 164 175 179 193 194 189 175 159 166 175 176 181 185 187 188 189 191 198
242 238 241 238 218 228 238 218 220 203 192 173 168 173 174 173 165 168 166 166 169 176 174 171 178 176 179 186 189 182 180 170 162 157 160 167 175 177 185 196 186 187 184
237 236 239 239 222 224 230 207 186 190 178 167 173 178 178 183 174 173 169 172 178 179 183 193 188 191 182 185 195 184 173 167 158 158 162 166 168 174 175 181 188 193 189
237 233 237 236 233 215 217 206 188 179 175 180 181 181 183 186 182 182 183 187 191 192 186 185 179 180 197 183 183 180 178 172 168 169 170 172 175 177 181 187 218 207 208
230 232 226 231 231 220 209 206 193 187 189 193 194 189 186 187 190 190 191 194 194 187 196 190 188 191 195 187 178 179 184 185 177 184 184 184 185 189 192 196 194 198 214
228 224 228 226 223 226 211 206 201 198 199 204 204 199 200 200 199 200 205 206 214 213 214 213 208 200 194 188 177 182 187 188 193 190 190 192 193 193 193 195 196 201 203
279 226 216 228 224 219 219 220 211 210 211 217 222 213 207 210 211 208 208 213 212 217 222 224 219 216 200 188 183 188 189 196 200 197 195 195 193 197 196 197 191 185 183
347 258 208 221 233 229 219 221 228 223 220 224 225 225 222 223 221 223 218 220 223 216 218 221 217 202 194 192 190 189 196 202 206 202 199 198 196 193 190 188 185 177 170
353 314 246 213 228 239 232 226 232 237 235 234 233 228 235 240 228 223 223 222 220 221 216 212 204 193 192 193 195 197 200 203 202 204 204 202 198 191 185 181 181 171 168
344 338 285 255 225 230 242 236 234 234 236 239 233 229 238 247 238 227 221 221 223 217 214 209 200 195 197 200 202 203 208 210 207 208 206 207 203 194 191 183 172 167 174
329 331 325 282 256 242 229 242 240 242 243 238 234 237 238 241 232 228 226 225 219 215 211 205 203 199 202 206 210 214 219 216 213 211 209 209 202 199 196 186 176 175 178
315 316 319 314 291 259 248 239 235 247 256 255 244 244 237 231 226 218 217 215 213 210 207 204 200 202 207 214 216 218 218 217 213 210 213 211 207 204 198 191 186 184 186
302 304 305 308 301 285 259 245 238 240 250 260 262 255 247 227 222 212 216 219 212 211 207 211 210 212 214 219 221 224 224 221 217 218 218 213 210 207 201 197 192 190 190
288 293 292 292 293 287 278 256 246 241 242 251 261 263 254 241 224 213 211 212 211 219 216 214 213 217 220 225 227 225 220 219 222 225 220 215 212 211 209 203 196 195 194
280 280 282 283 280 285 282 277 264 252 249 254 256 259 261 254 242 226 222 213 213 215 218 221 216 223 224 230 231 226 225 229 230 227 220 216 213 212 208 204 200 199 202
274 273 272 274 280 273 277 277 269 265 263 257 257 256 257 255 248 243 227 222 223 217 218 218 217 223 232 237 232 228 231 233 233 225 220 217 215 212 210 203 201 202 203
277 272 269 265 266 272 271 270 275 270 266 264 258 255 254 250 252 249 240 227 228 227 219 221 224 223 229 235 230 230 233 236 234 227 224 219 217 216 212 207 205 205 204
274 272 270 267 264 262 264 267 265 270 274 268 265 257 255 252 246 252 248 237 227 232 230 224 225 226 227 231 226 225 226 224 222 223 223 222 221 218 215 210 209 207 207
270 269 269 270 268 263 261 261 265 261 264 273 268 263 260 253 246 243 249 244 236 230 233 232 230 227 227 228 223 222 223 221 217 214 214 217 221 222 219 213 211 208 208
267 263 265 265 266 266 261 258 259 261 258 260 272 268 263 260 249 240 245 247 243 237 231 233 232 231 227 223 220 219 219 221 216 211 216 220 221 219 216 215 212 211 211
Wind_Speed_850mb
16 13 11 13 13 10 7 5 4 5 4 9 2 2 9 9 9 10 18 18 16 21 22 27 38 42 47 48 35 31 18 28 48 42 39 37 32 25 26 23 19 15 10
20 15 12 15 17 15 11 9 7 6 6 9 3 4 9 12 13 16 18 20 26 23 26 35 56 49 45 40 37 29 21 27 28 47 39 38 32 27 25 23 19 13 6
23 17 14 15 19 17 14 10 10 10 11 11 6 7 9 11 15 19 22 29 23 24 32 50 26 31 39 29 32 33 27 27 28 36 38 41 36 31 31 25 20 14 10
27 21 15 15 20 19 16 11 10 11 13 13 9 8 14 15 13 21 24 26 22 22 35 35 30 25 31 34 32 32 30 26 29 37 39 46 42 38 29 28 25 19 13
31 25 17 16 21 23 19 14 11 14 17 16 15 12 13 15 14 18 30 29 20 25 31 33 29 36 36 30 27 29 19 14 16 26 42 45 43 40 38 33 28 23 17
33 28 20 18 20 24 21 17 12 14 18 21 21 21 16 21 22 21 30 32 32 44 43 42 39 34 32 33 33 22 15 16 19 27 36 42 39 37 35 32 27 25 19
36 31 23 18 20 23 23 18 14 16 17 21 28 26 18 25 24 28 28 42 42 50 41 36 40 33 37 40 29 21 17 18 15 15 24 32 36 35 32 32 27 22 18
36 33 26 21 21 23 23 16 15 17 18 27 32 25 23 27 29 28 33 47 43 43 34 34 28 31 33 31 26 24 23 28 26 24 22 24 25 32 29 25 31 28 24
34 32 28 21 24 25 19 17 19 20 24 29 25 25 26 24 34 30 32 36 42 41 36 31 27 24 26 23 21 24 27 29 30 26 24 26 28 27 25 29 33 31 29
32 29 28 22 25 27 22 20 24 25 29 26 25 24 32 30 37 33 36 35 36 38 36 34 27 27 22 21 20 24 25 27 27 26 27 27 29 31 30 27 20 24 20
26 31 31 25 24 30 27 25 30 31 32 31 26 26 29 36 37 38 38 37 34 34 39 38 33 27 27 27 27 30 22 25 27 24 25 26 28 29 29 29 29 28 21
22 29 31 28 26 33 32 31 38 39 34 32 30 32 32 36 41 39 43 45 41 37 31 33 35 31 32 32 35 32 29 28 25 26 27 28 29 29 27 26 25 23 21
18 27 29 32 31 33 36 36 42 43 43 38 35 33 37 38 42 44 43 41 40 41 40 38 39 42 41 42 40 36 32 30 28 28 27 27 27 25 26 27 27 25 23
19 21 29 30 32 34 41 41 42 47 48 47 43 38 40 40 44 50 50 50 49 49 48 47 43 43 46 49 46 42 35 32 27 26 28 28 30 30 29 28 29 30 31
31 18 23 30 31 34 40 43 44 41 47 47 46 41 42 42 47 47 48 57 55 48 49 48 54 54 52 50 47 42 39 36 35 32 31 31 31 32 35 35 32 35 37
30 24 20 30 31 32 37 43 46 47 48 47 45 43 45 47 45 47 50 51 49 52 54 55 61 61 55 54 50 44 41 39 37 36 35 32 33 37 38 38 38 40 40
32 29 24 25 32 36 37 40 46 47 51 50 50 46 49 47 48 49 49 46 52 53 54 59 62 57 53 51 47 42 40 41 39 40 38 37 40 43 43 42 47 46 45
33 32 31 27 27 36 41 45 43 50 53 47 56 55 51 50 47 47 46 47 50 52 59 59 60 56 49 49 47 46 46 46 46 45 43 45 46 47 46 48 52 51 48
38 35 32 32 30 30 39 45 48 50 60 59 49 50 55 51 48 53 51 52 51 58 58 58 59 55 50 48 46 46 46 46 47 47 46 49 50 50 48 51 53 51 48
41 40 38 35 32 32 33 42 51 57 61 72 66 50 49 57 64 68 70 66 62 59 64 68 62 56 50 47 48 49 50 52 50 48 50 53 54 52 50 55 57 55 51
52 44 44 45 40 35 35 39 45 55 60 65 76 64 48 55 66 78 78 77 71 70 69 71 62 56 51 49 50 52 53 51 51 50 53 55 56 55 55 57 58 57 53
52 53 48 50 49 44 40 40 44 51 56 63 69 78 57 54 65 75 82 80 78 77 73 69 65 57 50 49 53 55 52 51 50 52 54 56 57 57 60 63 63 60 55
51 53 55 53 54 54 50 46 47 50 55 58 65 74 74 66 61 66 80 83 80 80 79 78 73 66 58 58 57 52 48 47 47 51 54 58 59 60 61 65 65 63 58
55 56 58 62 61 59 58 58 55 53 54 58 60 67 74 75 78 65 67 82 86 83 84 82 79 72 66 65 62 56 48 45 46 48 51 54 56 56 59 64 65 62 57
56 60 62 63 64 67 66 65 64 62 57 56 62 64 70 70 69 71 68 74 88 93 86 83 80 74 69 67 66 60 51 46 50 50 50 51 51 51 57 65 67 65 59
50 53 59 65 68 67 68 70 71 71 68 61 58 62 66 70 68 66 69 69 81 91 90 84 76 78 75 72 71 65 56 51 52 50 52 52 55 54 58 65 69 67 62
Wind_Direction_850mb
261 265 256 233 220 216 202 226 215 177 221 258 250 53 96 59 83 136 112 142 133 156 164 165 174 179 171 166 174 174 171 181 180 166 172 167 166 171 176 181 184 192 190
259 259 256 235 225 216 213 239 245 241 197 254 240 154 111 90 98 144 128 126 136 133 160 169 154 150 161 161 171 178 170 188 187 171 174 172 173 172 179 178 172 170 181
257 257 257 239 230 218 221 232 255 253 217 239 222 173 138 120 125 143 137 130 133 138 156 155 176 173 167 172 169 158 163 176 167 176 178 179 176 178 181 175 174 165 181
258 256 257 243 230 227 228 232 254 241 226 204 210 183 165 142 151 162 157 155 151 155 164 172 163 167 170 161 154 161 154 163 174 196 193 184 183 178 185 182 170 173 175
251 252 253 245 227 230 235 239 242 242 221 208 195 185 165 165 162 161 169 167 159 154 158 169 156 144 145 155 168 175 184 200 199 200 191 185 183 184 183 181 178 166 155
244 248 241 241 230 231 232 246 239 228 218 206 179 176 166 161 154 159 157 161 151 142 143 144 149 155 162 166 175 190 212 202 210 186 186 187 185 184 183 186 187 176 171
241 243 240 234 227 232 233 233 233 219 212 189 168 170 164 163 159 157 155 154 153 154 155 161 158 164 175 179 193 194 189 175 159 166 175 176 181 185 187 188 189 191 198
242 238 241 238 218 228 238 218 220 203 192 173 168 173 174 173 165 168 166 166 169 176 174 171 178 176 179 186 189 182 180 170 162 157 160 167 175 177 185 196 186 187 184
237 236 239 239 222 224 230 207 186 190 178 167 173 178 178 183 174 173 169 172 178 179 183 193 188 191 182 185 195 184 173 167 158 158 162 166 168 174 175 181 188 193 189
237 233 237 236 233 215 217 206 188 179 175 180 181 181 183 186 182 182 183 187 191 192 186 185 179 180 197 183 183 180 178 172 168 169 170 172 175 177 181 187 218 207 208
230 232 226 231 231 220 209 206 193 187 189 193 194 189 186 187 190 190 191 194 194 187 196 190 188 191 195 187 178 179 184 185 177 184 184 184 185 189 192 196 194 198 214
228 224 228 226 223 226 211 206 201 198 199 204 204 199 200 200 199 200 205 206 214 213 214 213 208 200 194 188 177 182 187 188 193 190 190 192 193 193 193 195 196 201 203
279 226 216 228 224 219 219 220 211 210 211 217 222 213 207 210 211 208 208 213 212 217 222 224 219 216 200 188 183 188 189 196 200 197 195 195 193 197 196 197 191 185 183
347 258 208 221 233 229 219 221 228 223 220 224 225 225 222 223 221 223 218 220 223 216 218 221 217 202 194 192 190 189 196 202 206 202 199 198 196 193 190 188 185 177 170
353 314 246 213 228 239 232 226 232 237 235 234 233 228 235 240 228 223 223 222 220 221 216 212 204 193 192 193 195 197 200 203 202 204 204 202 198 191 185 181 181 171 168
344 338 285 255 225 230 242 236 234 234 236 239 233 229 238 247 238 227 221 221 223 217 214 209 200 195 197 200 202 203 208 210 207 208 206 207 203 194 191 183 172 167 174
329 331 325 282 256 242 229 242 240 242 243 238 234 237 238 241 232 228 226 225 219 215 211 205 203 199 202 206 210 214 219 216 213 211 209 209 202 199 196 186 176 175 178
315 316 319 314 291 259 248 239 235 247 256 255 244 244 237 231 226 218 217 215 213 210 207 204 200 202 207 214 216 218 218 217 213 210 213 211 207 204 198 191 186 184 186
302 304 305 308 301 285 259 245 238 240 250 260 262 255 247 227 222 212 216 219 212 211 207 211 210 212 214 219 221 224 224 221 217 218 218 213 210 207 201 197 192 190 190
288 293 292 292 293 287 278 256 246 241 242 251 261 263 254 241 224 213 211 212 211 219 216 214 213 217 220 225 227 225 220 219 222 225 220 215 212 211 209 203 196 195 194
280 280 282 283 280 285 282 277 264 252 249 254 256 259 261 254 242 226 222 213 213 215 218 221 216 223 224 230 231 226 225 229 230 227 220 216 213 212 208 204 200 199 202
274 273 272 274 280 273 277 277 269 265 263 257 257 256 257 255 248 243 227 222 223 217 218 218 217 223 232 237 232 228 231 233 233 225 220 217 215 212 210 203 201 202 203
277 272 269 265 266 272 271 270 275 270 266 264 258 255 254 250 252 249 240 227 228 227 219 221 224 223 229 235 230 230 233 236 234 227 224 219 217 216 212 207 205 205 204
274 272 270 267 264 262 264 267 265 270 274 268 265 257 255 252 246 252 248 237 227 232 230 224 225 226 227 231 226 225 226 224 222 223 223 222 221 218 215 210 209 207 207
270 269 269 270 268 263 261 261 265 261 264 273 268 263 260 253 246 243 249 244 236 230 233 232 230 227 227 228 223 222 223 221 217 214 214 217 221 222 219 213 211 208 208
267 263 265 265 266 266 261 258 259 261 258 260 272 268 263 260 249 240 245 247 243 237 231 233 232 231 227 223 220 219 219 221 216 211 216 220 221 219 216 215 212 211 211